Wilmington, OH

8:09 AM EST on January 29, 2015 (GMT -0500)
Little House On The Prairie | Change Station
CLOSE
Current Station
Personal Weather Station
Location: Wilmington, OH
Elevation: 1043 ft
Nearby Weather Stations

Elev 1043 ft 39.45 °N, 83.82 °W | Updated 2 seconds ago

Overcast
Overcast
35.1 °F
Feels Like 26 °F
N
13.8
Wind Variable Wind from SSE
Gusts 13.8 mph

Today
High -- | Low -- °F
--% Chance of Precip.
Yesterday
High -- | Low -- °F
Precip. -- in
7:45 AM 5:51 PM
Waxing Gibbous, 74% visible
Pressure 29.95 in
Visibility 10.0 miles
Clouds Overcast 6000 ft
Windchill 26 °F
Dew Point 29 °F
Humidity 79%
Rainfall 0.02 in
Snow Depth Not available.
UV 0 out of 12
Pollen .10 out of 12
Air Quality Not available.
Flu Activity Not available.
METAR KILN 291254Z AUTO 19016G24KT 10SM OVC060 02/M03 A2987 RMK AO2 PK WND 18027/1212 RAE23 SLP140 P0003 T00171028

More Conditions Fewer Conditions

Pressure 29.95 in
Visibility 10.0 miles
Clouds Overcast 6000 ft
Windchill 26 °F
Dew Point 29 °F
Humidity 79%
Rainfall 0.02 in
Snow Depth Not available.
UV 0 out of 12
Pollen .10 out of 12
Air Quality Not available.
Flu Activity Not available.
METAR KILN 291254Z AUTO 19016G24KT 10SM OVC060 02/M03 A2987 RMK AO2 PK WND 18027/1212 RAE23 SLP140 P0003 T00171028

More Conditions Fewer Conditions

10-Day Weather Forecast

Almanac

Astronomy

Jan. 29, 2015 Rise Set
Actual Time
Civil Twilight
Nautical Twilight
Astronomical Twilight
Moon
Length of Visible Light
Length of Day
Tomorrow will be .
, % of the Moon is Illuminated

Today's Extremes

State Highs State Lows

Community

WunderPhotos

Upload Photos

1,791,424 photos uploaded!

WunderBlogs® & News

Nearby

Air Quality

  Air Quality AQ Index Pollutant
Not available.

Snow Depth

Station Depth Elevation

Earthquake Activity

City Distance Mag. Time & Date
Minimum magnitude displayed is 2.5.

Coastal Water Temperatures

Place Temperature

Nearby Weather Stations